FW6886 Weather Reports


Display with metric or nautical units.
time (UTC)temp
F
wind
direction
speed
MPH
gust
MPH
rain 1hr
in
rain 24hr
in
rain mn
in
humidity
%
barometer
mb
20260502233109 62 267 3.0 12.0 0.00 0.00 0.00 35 1011.6
20260502231606 62 249 4.0 10.0 0.00 0.00 0.00 36 1011.7
20260502230052 62 240 2.0 12.0 0.00 0.00 0.00 34 1011.8
20260502224550 63 259 3.0 9.0 0.00 0.00 0.00 34 1012.1
20260502223051 63 242 5.0 12.0 0.00 0.00 0.00 34 1012.2
20260502221559 62 255 6.0 15.0 0.00 0.00 0.00 34 1012.4
20260502220046 62 205 7.0 18.0 0.00 0.00 0.00 34 1012.6
20260502214545 64 299 6.0 13.0 0.00 0.00 0.00 33 1012.7
20260502213050 63 246 2.0 10.0 0.00 0.00 0.00 33 1013.0
20260502211545 63 247 8.0 16.0 0.00 0.00 0.00 33 1013.2
20260502210036 62 242 6.0 15.0 0.00 0.00 0.00 34 1013.4
20260502204539 62 275 6.0 14.0 0.00 0.00 0.00 32 1013.8
20260502203034 61 295 5.0 13.0 0.00 0.00 0.00 34 1014.0
20260502201530 62 214 6.0 14.0 0.00 0.00 0.00 34 1014.2
20260502200028 61 194 4.0 10.0 0.00 0.00 0.00 35 1014.5
20260502194525 63 212 5.0 14.0 0.00 0.00 0.00 32 1014.8
20260502193024 62 259 4.0 11.0 0.00 0.00 0.00 34 1015.0
20260502191523 61 242 6.0 12.0 0.00 0.00 0.00 32 1015.2
20260502190018 60 247 3.0 13.0 0.00 0.00 0.00 37 1015.5
20260502184516 59 246 6.0 18.0 0.00 0.00 0.00 33 1015.8
20260502183014 61 268 7.0 13.0 0.00 0.00 0.00 32 1016.1
20260502181512 61 261 6.0 12.0 0.00 0.00 0.00 32 1016.2
20260502163055 58 340 4.0 13.0 0.00 0.00 0.00 33 1017.6
20260502161553 57 322 6.0 15.0 0.00 0.00 0.00 35 1017.8
20260502151529 53 248 7.0 9.0 0.00 0.00 0.00 44 1018.3
20260502123058 40 301 2.0 4.0 0.00 0.00 0.00 63 1018.8
20260502121601 39 259 1.0 5.0 0.00 0.00 0.00 64 1018.7
20260502120111 39 267 1.0 6.0 0.00 0.00 0.00 64 1018.7
20260502114602 38 250 2.0 7.0 0.00 0.00 0.00 65 1018.5
20260502113053 38 250 3.0 7.0 0.00 0.00 0.00 64 1018.5
20260502111559 38 250 2.0 8.0 0.00 0.00 0.00 63 1018.4
20260502110051 38 244 2.0 7.0 0.00 0.00 0.00 63 1018.3
20260502104553 38 249 3.0 7.0 0.00 0.00 0.00 62 1018.3
20260502103048 38 250 3.0 7.0 0.00 0.00 0.00 61 1018.4
20260502101548 39 246 2.0 5.0 0.00 0.00 0.00 60 1018.5
20260502070025 41 245 2.0 7.0 0.00 0.00 0.00 53 1018.7
20260502064521 41 247 3.0 5.0 0.00 0.00 0.00 53 1018.8
20260502063018 41 241 2.0 5.0 0.00 0.00 0.00 53 1018.9
20260502061515 42 233 3.0 5.0 0.00 0.00 0.00 51 1018.9
20260502060011 42 243 3.0 5.0 0.00 0.00 0.00 49 1018.8
20260502054517 42 239 3.0 7.0 0.00 0.00 0.00 48 1018.8
20260502053009 42 256 3.0 6.0 0.00 0.00 0.00 48 1018.8
20260502051508 43 229 2.0 5.0 0.00 0.00 0.00 46 1018.7
20260502050003 43 211 1.0 4.0 0.00 0.00 0.00 45 1018.8
20260502044502 43 211 1.0 4.0 0.00 0.00 0.00 45 1018.7
20260502043002 42 227 1.0 3.0 0.00 0.00 0.00 45 1018.8
20260502041501 42 227 2.0 4.0 0.00 0.00 0.00 45 1018.7
20260502040101 42 355 1.0 2.0 0.00 0.00 0.00 45 1018.8
20260502034600 42 5 0.0 3.0 0.00 0.00 0.00 47 1018.8
20260502033059 42 5 1.0 3.0 0.00 0.00 0.00 46 1018.8
20260502031611 42 42 1.0 3.0 0.00 0.00 0.00 46 1018.8
20260502030057 42 43 0.0 2.0 0.00 0.00 0.00 48 1018.8
20260502024558 42 43 1.0 2.0 0.00 0.00 0.00 48 1018.7
20260502023056 42 43 0.0 0.0 0.00 0.00 0.00 47 1018.7
20260502021556 43 43 0.0 0.0 0.00 0.00 0.00 45 1018.7
20260502020106 44 43 0.0 0.0 0.00 0.00 0.00 44 1018.6
20260502014555 45 43 0.0 0.0 0.00 0.00 0.00 43 1018.5
20260502013056 47 43 0.0 0.0 0.00 0.00 0.00 41 1018.3
20260502011554 48 43 0.0 1.0 0.00 0.00 0.00 38 1018.3
20260502010056 49 43 0.0 4.0 0.00 0.00 0.00 37 1018.2
20260502004652 50 5 0.0 4.0 0.00 0.00 0.00 36 1018.1
20260502003052 50 52 2.0 8.0 0.00 0.00 0.00 36 1018.1
20260502001550 50 12 1.0 9.0 0.00 0.00 0.00 36 1018.1
20260502000050 50 5 3.0 9.0 0.00 0.00 0.00 36 1018.0
20260501234555 49 355 2.0 9.0 0.00 0.00 0.00 36 1017.9